When you browse on this site, cookies collect data to enhance your experience and personalize the content and advertising you see.
Visit our Privacy Policy to learn more. By continuing to use the site, you agree to this use of cookies and data.
  • In Romania
  • List of Countries
  • For 7 days
  • Water Temperature
  • Satellite Maps
  • Weather Map
  • Weather Widgets
  • user-avatar
    Login

    Hourly Weather Sheshurino

    Today, 19 July, Friday

    Time Temperature Precipitation Wind Pressure Humidity
    00:00 +14°C° 0 mm 1 mps 732 mmHg 99%
    01:00 +14°C° 0 mm 1 mps 732 mmHg 99%
    02:00 +14°C° 0 mm 1 mps 733 mmHg 98%
    03:00 +14°C° 0.1 mm 1 mps 733 mmHg 98%
    04:00 +14°C° 0.1 mm 1 mps 733 mmHg 98%
    05:00 +15°C° 0.1 mm 1 mps 733 mmHg 98%
    06:00 +15°C° 0.2 mm 1 mps 733 mmHg 98%
    07:00 +15°C° 0.2 mm 1 mps 733 mmHg 98%
    08:00 +15°C° 0.2 mm 2 mps 733 mmHg 97%
    09:00 +16°C° 1.1 mm 2 mps 733 mmHg 95%
    10:00 +17°C° 1.1 mm 2 mps 734 mmHg 93%
    11:00 +18°C° 1.1 mm 2 mps 734 mmHg 91%
    12:00 +18°C° 1.6 mm 3 mps 734 mmHg 92%
    13:00 +18°C° 1.6 mm 3 mps 734 mmHg 92%
    14:00 +18°C° 1.6 mm 4 mps 734 mmHg 93%
    15:00 +18°C° 0.8 mm 4 mps 734 mmHg 93%
    16:00 +18°C° 0.8 mm 4 mps 734 mmHg 92%
    17:00 +18°C° 0.8 mm 4 mps 734 mmHg 92%
    18:00 +17°C° 0.6 mm 4 mps 734 mmHg 93%
    19:00 +15°C° 0.6 mm 4 mps 735 mmHg 95%
    20:00 +16°C° 0.6 mm 3 mps 735 mmHg 96%
    21:00 +14°C° 0.2 mm 3 mps 735 mmHg 96%
    22:00 +14°C° 0.2 mm 3 mps 735 mmHg 97%
    23:00 +14°C° 0.2 mm 3 mps 735 mmHg 98%

    Tomorrow, 20 July, Saturday

    Time Temperature Precipitation Wind Pressure Humidity
    00:00 +14°C° 0.1 mm 3 mps 736 mmHg 98%
    01:00 +14°C° 0.1 mm 3 mps 736 mmHg 98%
    02:00 +14°C° 0.1 mm 3 mps 736 mmHg 98%
    03:00 +14°C° 0.1 mm 3 mps 736 mmHg 98%
    04:00 +14°C° 0.1 mm 4 mps 737 mmHg 98%
    05:00 +13°C° 0.1 mm 4 mps 737 mmHg 97%
    06:00 +14°C° 0.1 mm 4 mps 737 mmHg 97%
    07:00 +14°C° 0.1 mm 4 mps 737 mmHg 96%
    08:00 +14°C° 0.1 mm 4 mps 738 mmHg 96%
    09:00 +14°C° 0.2 mm 3 mps 738 mmHg 96%
    10:00 +14°C° 0.2 mm 3 mps 739 mmHg 95%
    11:00 +16°C° 0.2 mm 3 mps 739 mmHg 95%
    12:00 +17°C° 0.2 mm 3 mps 739 mmHg 89%
    13:00 +18°C° 0.2 mm 3 mps 739 mmHg 83%
    14:00 +20°C° 0.2 mm 4 mps 740 mmHg 77%
    15:00 +19°C° 0.8 mm 4 mps 740 mmHg 82%
    16:00 +19°C° 0.8 mm 3 mps 740 mmHg 87%
    17:00 +19°C° 0.8 mm 3 mps 740 mmHg 91%
    18:00 +18°C° 0.2 mm 3 mps 740 mmHg 93%
    19:00 +17°C° 0.2 mm 2 mps 741 mmHg 95%
    20:00 +16°C° 0.2 mm 2 mps 741 mmHg 96%
    21:00 +16°C° 0 mm 2 mps 741 mmHg 97%
    22:00 +15°C° 0 mm 2 mps 741 mmHg 97%
    23:00 +14°C° 0 mm 2 mps 742 mmHg 97%

    Day after tomorrow, 21 July, Sunday

    Time Temperature Precipitation Wind Pressure Humidity
    00:00 +14°C° 0 mm 1 mps 742 mmHg 98%
    01:00 +13°C° 0 mm 1 mps 742 mmHg 98%
    02:00 +13°C° 0 mm 1 mps 742 mmHg 98%
    03:00 +13°C° 0 mm 1 mps 742 mmHg 98%
    04:00 +13°C° 0 mm 1 mps 742 mmHg 98%
    05:00 +13°C° 0 mm 1 mps 743 mmHg 98%
    06:00 +14°C° 0 mm 1 mps 743 mmHg 94%
    07:00 +16°C° 0 mm 1 mps 743 mmHg 89%
    08:00 +18°C° 0 mm 1 mps 743 mmHg 84%
    09:00 +19°C° 0.1 mm 2 mps 743 mmHg 75%
    10:00 +20°C° 0.1 mm 2 mps 743 mmHg 66%
    11:00 +23°C° 0.1 mm 2 mps 743 mmHg 57%
    12:00 +24°C° 0 mm 2 mps 743 mmHg 54%
    13:00 +24°C° 0 mm 2 mps 743 mmHg 51%
    14:00 +25°C° 0 mm 2 mps 743 mmHg 49%
    15:00 +24°C° 0 mm 2 mps 743 mmHg 51%
    16:00 +24°C° 0 mm 2 mps 743 mmHg 54%
    17:00 +24°C° 0 mm 2 mps 743 mmHg 56%
    18:00 +21°C° 0 mm 2 mps 743 mmHg 64%
    19:00 +20°C° 0 mm 1 mps 742 mmHg 73%
    20:00 +18°C° 0 mm 1 mps 742 mmHg 81%
    21:00 +15°C° 0 mm 0 mps 742 mmHg 83%
    22:00 +14°C° 0 mm 0 mps 742 mmHg 84%
    23:00 +13°C° 0 mm 0 mps 742 mmHg 85%

    22 July, Monday

    Time Temperature Precipitation Wind Pressure Humidity
    00:00 +13°C° 0 mm 0 mps 742 mmHg 86%
    01:00 +12°C° 0 mm 0 mps 742 mmHg 87%
    02:00 +12°C° 0 mm 0 mps 742 mmHg 88%
    03:00 +12°C° 0 mm 0 mps 742 mmHg 87%
    04:00 +13°C° 0 mm 0 mps 742 mmHg 86%
    05:00 +13°C° 0 mm 0 mps 742 mmHg 84%
    06:00 +15°C° 0 mm 0 mps 742 mmHg 78%
    07:00 +18°C° 0 mm 0 mps 742 mmHg 71%
    08:00 +20°C° 0 mm 0 mps 742 mmHg 64%
    09:00 +21°C° 0 mm 0 mps 742 mmHg 59%
    10:00 +23°C° 0 mm 0 mps 742 mmHg 54%
    11:00 +24°C° 0 mm 0 mps 742 mmHg 48%
    12:00 +24°C° 0 mm 0 mps 741 mmHg 48%
    13:00 +26°C° 0 mm 1 mps 741 mmHg 47%
    14:00 +26°C° 0 mm 1 mps 741 mmHg 47%
    15:00 +25°C° 0 mm 1 mps 741 mmHg 49%
    16:00 +25°C° 0 mm 1 mps 741 mmHg 52%
    17:00 +24°C° 0 mm 2 mps 741 mmHg 54%
    18:00 +23°C° 0 mm 2 mps 740 mmHg 62%
    19:00 +20°C° 0 mm 2 mps 740 mmHg 70%
    20:00 +18°C° 0 mm 2 mps 740 mmHg 78%
    21:00 +17°C° 0 mm 2 mps 740 mmHg 79%
    22:00 +16°C° 0 mm 2 mps 740 mmHg 81%
    23:00 +15°C° 0 mm 2 mps 740 mmHg 82%

    23 July, Tuesday

    Time Temperature Precipitation Wind Pressure Humidity
    00:00 +15°C° 0 mm 1 mps 740 mmHg 82%
    01:00 +15°C° 0 mm 1 mps 740 mmHg 83%
    02:00 +15°C° 0 mm 1 mps 740 mmHg 83%
    03:00 +15°C° 0 mm 1 mps 740 mmHg 83%
    04:00 +15°C° 0 mm 1 mps 740 mmHg 82%
    05:00 +15°C° 0 mm 1 mps 740 mmHg 82%
    06:00 +18°C° 0 mm 1 mps 740 mmHg 77%
    07:00 +19°C° 0 mm 1 mps 740 mmHg 71%
    08:00 +21°C° 0 mm 1 mps 740 mmHg 66%
    09:00 +22°C° 0 mm 1 mps 740 mmHg 62%
    10:00 +23°C° 0 mm 1 mps 741 mmHg 57%
    11:00 +24°C° 0 mm 2 mps 741 mmHg 52%
    12:00 +24°C° 0 mm 2 mps 741 mmHg 52%
    13:00 +25°C° 0 mm 2 mps 741 mmHg 51%
    14:00 +25°C° 0 mm 2 mps 740 mmHg 50%
    15:00 +24°C° 0 mm 2 mps 741 mmHg 54%
    16:00 +24°C° 0 mm 2 mps 741 mmHg 57%
    17:00 +23°C° 0 mm 2 mps 741 mmHg 61%
    18:00 +21°C° 0 mm 2 mps 741 mmHg 64%
    19:00 +19°C° 0 mm 2 mps 741 mmHg 67%
    20:00 +18°C° 0 mm 2 mps 741 mmHg 70%
    21:00 +17°C° 0 mm 2 mps 741 mmHg 70%
    22:00 +17°C° 0 mm 2 mps 741 mmHg 70%
    23:00 +16°C° 0 mm 1 mps 742 mmHg 70%

    24 July, Wednesday

    Time Temperature Precipitation Wind Pressure Humidity
    00:00 +16°C° 0 mm 1 mps 742 mmHg 72%
    01:00 +15°C° 0 mm 1 mps 742 mmHg 74%
    02:00 +14°C° 0 mm 1 mps 742 mmHg 77%
    03:00 +14°C° 0 mm 1 mps 742 mmHg 80%
    04:00 +13°C° 0 mm 2 mps 742 mmHg 82%
    05:00 +12°C° 0 mm 2 mps 742 mmHg 85%
    06:00 +14°C° 0 mm 2 mps 742 mmHg 78%
    07:00 +16°C° 0 mm 2 mps 742 mmHg 71%
    08:00 +17°C° 0 mm 2 mps 743 mmHg 64%
    09:00 +19°C° 0 mm 3 mps 743 mmHg 59%
    10:00 +21°C° 0 mm 3 mps 743 mmHg 53%
    11:00 +22°C° 0 mm 3 mps 743 mmHg 47%
    12:00 +24°C° 0 mm 3 mps 743 mmHg 47%
    13:00 +23°C° 0 mm 4 mps 743 mmHg 46%
    14:00 +25°C° 0 mm 4 mps 743 mmHg 45%
    15:00 +25°C° 0 mm 4 mps 743 mmHg 47%
    16:00 +24°C° 0 mm 3 mps 743 mmHg 49%
    17:00 +24°C° 0 mm 3 mps 742 mmHg 51%
    18:00 +21°C° 0 mm 2 mps 742 mmHg 61%
    19:00 +19°C° 0 mm 2 mps 742 mmHg 70%
    20:00 +19°C° 0 mm 1 mps 742 mmHg 79%
    21:00 +18°C° 0 mm 1 mps 742 mmHg 83%
    22:00 +16°C° 0 mm 1 mps 743 mmHg 87%
    23:00 +15°C° 0 mm 1 mps 743 mmHg 91%
    Show more